Time,TemperatureF,DewpointF,PressureIn,WindDirection,WindDirectionDegrees,WindSpeedMPH,WindSpeedGustMPH,Humidity,HourlyPrecipIn,Conditions,Clouds,dailyrainin,SoftwareType,DateUTC
2016-02-13 00:03:00,58.7,57.0,30.21,ESE,115,0.0,0.0,94,0.00,,---,0.00,VWS V14.01,2016-02-13 05:03:00,
2016-02-13 00:14:00,58.9,57.2,30.20,WNW,284,0.0,0.0,94,0.00,,---,0.00,VWS V14.01,2016-02-13 05:14:00,
2016-02-13 00:19:00,59.0,57.3,30.20,NE,46,0.0,0.0,94,0.00,,---,0.00,VWS V14.01,2016-02-13 05:19:00,
2016-02-13 00:24:00,59.0,57.3,30.20,NE,46,0.0,0.0,94,0.00,,---,0.00,VWS V14.01,2016-02-13 05:24:00,
2016-02-13 00:29:00,59.0,57.3,30.20,SW,214,0.0,0.0,94,0.00,,---,0.00,VWS V14.01,2016-02-13 05:29:00,
2016-02-13 00:34:00,59.1,57.4,30.20,SW,221,0.0,0.0,94,0.00,,---,0.00,VWS V14.01,2016-02-13 05:34:00,
2016-02-13 00:39:00,58.9,57.2,30.20,SW,221,0.0,0.0,94,0.00,,---,0.00,VWS V14.01,2016-02-13 05:39:00,
2016-02-13 00:44:00,58.9,57.2,30.20,ESE,115,0.0,0.0,94,0.00,,---,0.00,VWS V14.01,2016-02-13 05:44:00,
2016-02-13 00:49:00,58.7,57.0,30.20,ESE,115,0.0,0.0,94,0.00,,---,0.00,VWS V14.01,2016-02-13 05:49:00,
2016-02-13 00:59:00,58.3,56.6,30.20,ESE,115,0.0,0.0,94,0.00,,---,0.00,VWS V14.01,2016-02-13 05:59:00,
2016-02-13 01:05:00,58.1,56.4,30.20,ESE,115,0.0,0.0,94,0.00,,---,0.00,VWS V14.01,2016-02-13 06:05:00,
2016-02-13 01:10:00,58.1,56.4,30.20,ESE,114,0.0,0.0,94,0.00,,---,0.00,VWS V14.01,2016-02-13 06:10:00,
2016-02-13 01:15:00,58.0,56.3,30.20,ESE,114,0.0,0.0,94,0.00,,---,0.00,VWS V14.01,2016-02-13 06:15:00,
2016-02-13 01:20:00,57.9,56.2,30.20,ESE,115,0.0,0.0,94,0.00,,---,0.00,VWS V14.01,2016-02-13 06:20:00,
2016-02-13 01:25:00,58.0,56.3,30.20,ESE,114,0.0,0.0,94,0.00,,---,0.00,VWS V14.01,2016-02-13 06:25:00,
2016-02-13 01:30:00,57.9,56.2,30.20,ESE,115,0.0,0.0,94,0.00,,---,0.00,VWS V14.01,2016-02-13 06:30:00,
2016-02-13 01:35:00,57.8,56.1,30.20,SE,141,0.0,0.0,94,0.00,,---,0.00,VWS V14.01,2016-02-13 06:35:00,
2016-02-13 01:40:00,57.7,56.0,30.19,SE,141,0.0,0.0,94,0.00,,---,0.00,VWS V14.01,2016-02-13 06:40:00,
2016-02-13 01:45:00,57.7,56.0,30.19,SE,141,0.0,0.0,94,0.00,,---,0.00,VWS V14.01,2016-02-13 06:45:00,
2016-02-13 01:50:00,57.5,55.8,30.19,SE,141,0.0,0.0,94,0.00,,---,0.00,VWS V14.01,2016-02-13 06:50:00,
2016-02-13 01:55:00,57.3,55.6,30.19,SE,141,0.0,0.0,94,0.00,,---,0.00,VWS V14.01,2016-02-13 06:55:00,
2016-02-13 02:00:00,57.3,55.6,30.19,SE,141,0.0,0.0,94,0.00,,---,0.00,VWS V14.01,2016-02-13 07:00:00,
2016-02-13 02:05:00,57.2,55.5,30.19,SE,141,0.0,0.0,94,0.00,,---,0.00,VWS V14.01,2016-02-13 07:05:00,
2016-02-13 02:10:00,57.2,55.5,30.19,SE,141,0.0,0.0,94,0.00,,---,0.00,VWS V14.01,2016-02-13 07:10:00,
2016-02-13 02:21:00,57.2,55.5,30.19,SE,141,0.0,0.0,94,0.00,,---,0.00,VWS V14.01,2016-02-13 07:21:00,
2016-02-13 02:26:00,57.4,56.0,30.19,SE,141,0.0,0.0,95,0.00,,---,0.00,VWS V14.01,2016-02-13 07:26:00,
2016-02-13 02:31:00,57.7,56.3,30.19,SE,141,0.0,0.0,95,0.00,,---,0.00,VWS V14.01,2016-02-13 07:31:00,
2016-02-13 02:36:00,57.9,56.5,30.19,SE,141,0.0,0.0,95,0.00,,---,0.00,VWS V14.01,2016-02-13 07:36:00,
2016-02-13 02:41:00,58.0,56.6,30.18,ESE,109,0.0,0.0,95,0.00,,---,0.00,VWS V14.01,2016-02-13 07:41:00,
2016-02-13 02:46:00,58.1,56.7,30.18,ESE,109,0.0,0.0,95,0.00,,---,0.00,VWS V14.01,2016-02-13 07:46:00,
2016-02-13 02:52:00,58.1,56.7,30.18,ESE,109,0.0,0.0,95,0.00,,---,0.00,VWS V14.01,2016-02-13 07:52:00,
2016-02-13 02:57:00,58.1,56.7,30.18,ESE,109,0.0,0.0,95,0.00,,---,0.00,VWS V14.01,2016-02-13 07:57:00,
2016-02-13 03:02:00,57.9,56.5,30.18,ESE,109,0.0,0.0,95,0.00,,---,0.00,VWS V14.01,2016-02-13 08:02:00,
2016-02-13 03:07:00,57.7,56.3,30.18,ESE,109,0.0,0.0,95,0.00,,---,0.00,VWS V14.01,2016-02-13 08:07:00,
2016-02-13 03:12:00,57.6,56.2,30.18,ESE,103,0.0,0.0,95,0.00,,---,0.00,VWS V14.01,2016-02-13 08:12:00,
2016-02-13 03:17:00,57.6,56.2,30.17,ESE,105,0.0,0.0,95,0.00,,---,0.00,VWS V14.01,2016-02-13 08:17:00,
2016-02-13 03:27:00,57.4,56.0,30.17,ESE,104,0.0,0.0,95,0.00,,---,0.00,VWS V14.01,2016-02-13 08:27:00,
2016-02-13 03:37:00,57.1,55.7,30.17,ESE,105,0.0,0.0,95,0.00,,---,0.00,VWS V14.01,2016-02-13 08:37:00,
2016-02-13 03:42:00,56.9,55.5,30.17,ESE,103,0.0,0.0,95,0.00,,---,0.00,VWS V14.01,2016-02-13 08:42:00,
2016-02-13 03:47:00,56.7,55.3,30.17,ESE,103,0.0,0.0,95,0.00,,---,0.00,VWS V14.01,2016-02-13 08:47:00,
2016-02-13 03:52:00,56.6,55.2,30.17,ESE,103,0.0,0.0,95,0.00,,---,0.00,VWS V14.01,2016-02-13 08:52:00,
2016-02-13 03:57:00,56.5,55.1,30.17,ESE,103,0.0,0.0,95,0.00,,---,0.00,VWS V14.01,2016-02-13 08:57:00,
2016-02-13 04:02:00,56.4,55.0,30.17,ESE,105,0.0,0.0,95,0.00,,---,0.00,VWS V14.01,2016-02-13 09:02:00,
2016-02-13 04:07:00,56.4,55.0,30.17,ESE,103,0.0,0.0,95,0.00,,---,0.00,VWS V14.01,2016-02-13 09:07:00,
2016-02-13 04:12:00,56.3,54.9,30.17,ESE,103,0.0,0.0,95,0.00,,---,0.00,VWS V14.01,2016-02-13 09:12:00,
2016-02-13 04:17:00,56.3,54.9,30.17,ESE,105,0.0,0.0,95,0.00,,---,0.00,VWS V14.01,2016-02-13 09:17:00,
2016-02-13 04:22:00,56.2,54.8,30.17,ESE,103,0.0,0.0,95,0.00,,---,0.00,VWS V14.01,2016-02-13 09:22:00,
2016-02-13 04:37:00,55.9,54.5,30.17,ESE,105,0.0,0.0,95,0.00,,---,0.00,VWS V14.01,2016-02-13 09:37:00,
2016-02-13 04:42:00,55.9,54.5,30.17,ESE,105,0.0,0.0,95,0.00,,---,0.00,VWS V14.01,2016-02-13 09:42:00,
2016-02-13 04:47:00,55.8,54.4,30.17,ESE,105,0.0,0.0,95,0.00,,---,0.00,VWS V14.01,2016-02-13 09:47:00,
2016-02-13 04:52:00,55.7,54.3,30.17,ESE,105,0.0,0.0,95,0.00,,---,0.00,VWS V14.01,2016-02-13 09:52:00,
2016-02-13 04:57:00,55.6,54.2,30.17,ESE,103,0.0,0.0,95,0.00,,---,0.00,VWS V14.01,2016-02-13 09:57:00,
2016-02-13 05:02:00,55.3,53.9,30.17,ESE,105,0.0,0.0,95,0.00,,---,0.00,VWS V14.01,2016-02-13 10:02:00,
2016-02-13 05:07:00,55.3,53.9,30.17,ENE,72,0.0,0.0,95,0.00,,---,0.00,VWS V14.01,2016-02-13 10:07:00,
2016-02-13 05:12:00,55.4,54.0,30.18,ENE,72,0.0,0.0,95,0.00,,---,0.00,VWS V14.01,2016-02-13 10:12:00,
2016-02-13 05:17:00,55.5,54.1,30.18,ENE,72,0.0,0.0,95,0.00,,---,0.00,VWS V14.01,2016-02-13 10:17:00,
2016-02-13 05:20:00,55.6,54.2,30.18,ENE,72,0.0,0.0,95,0.00,,---,0.00,VWS V14.01,2016-02-13 10:20:00,
2016-02-13 05:22:00,55.7,54.3,30.18,ENE,72,0.0,0.0,95,0.00,,---,0.00,VWS V14.01,2016-02-13 10:22:00,
2016-02-13 05:32:00,55.7,54.3,30.18,ENE,72,0.0,0.0,95,0.00,,---,0.00,VWS V14.01,2016-02-13 10:32:00,
2016-02-13 05:37:00,55.8,54.4,30.18,ENE,72,0.0,0.0,95,0.00,,---,0.00,VWS V14.01,2016-02-13 10:37:00,
2016-02-13 05:42:00,55.9,54.5,30.18,ENE,72,0.0,0.0,95,0.00,,---,0.00,VWS V14.01,2016-02-13 10:42:00,
2016-02-13 05:48:00,56.0,54.6,30.18,ENE,72,0.0,0.0,95,0.00,,---,0.00,VWS V14.01,2016-02-13 10:48:00,
2016-02-13 05:53:00,56.2,54.8,30.18,ENE,72,0.0,0.0,95,0.00,,---,0.00,VWS V14.01,2016-02-13 10:53:00,
2016-02-13 05:58:00,56.2,54.8,30.19,ENE,73,0.0,0.0,95,0.00,,---,0.00,VWS V14.01,2016-02-13 10:58:00,
2016-02-13 06:03:00,56.4,55.0,30.19,ENE,74,0.0,0.0,95,0.00,,---,0.00,VWS V14.01,2016-02-13 11:03:00,
2016-02-13 06:08:00,56.6,55.2,30.19,ENE,73,0.0,0.0,95,0.00,,---,0.00,VWS V14.01,2016-02-13 11:08:00,
2016-02-13 06:13:00,56.9,55.5,30.20,ENE,74,0.0,0.0,95,0.00,,---,0.00,VWS V14.01,2016-02-13 11:13:00,
2016-02-13 06:18:00,57.4,56.0,30.20,ENE,73,0.0,0.0,95,0.00,,---,0.00,VWS V14.01,2016-02-13 11:18:00,
2016-02-13 06:23:00,57.7,56.3,30.20,ENE,72,0.0,0.0,95,0.00,,---,0.00,VWS V14.01,2016-02-13 11:23:00,
2016-02-13 06:28:00,57.9,56.5,30.20,ENE,74,0.0,0.0,95,0.00,,---,0.00,VWS V14.01,2016-02-13 11:28:00,
2016-02-13 06:33:00,58.1,56.7,30.20,ENE,72,0.0,0.0,95,0.00,,---,0.00,VWS V14.01,2016-02-13 11:33:00,
2016-02-13 06:38:00,58.1,56.7,30.21,ENE,73,0.0,0.0,95,0.00,,---,0.00,VWS V14.01,2016-02-13 11:38:00,
2016-02-13 06:43:00,58.1,56.7,30.21,ENE,72,0.0,0.0,95,0.00,,---,0.00,VWS V14.01,2016-02-13 11:43:00,
2016-02-13 06:58:00,58.2,56.8,30.22,NNW,342,0.0,0.0,95,0.00,,---,0.00,VWS V14.01,2016-02-13 11:58:00,
2016-02-13 07:03:00,58.3,56.9,30.21,NNW,342,0.0,0.0,95,0.00,,---,0.00,VWS V14.01,2016-02-13 12:03:00,
2016-02-13 07:14:00,58.2,56.8,30.22,NNW,345,0.0,0.0,95,0.00,,---,0.00,VWS V14.01,2016-02-13 12:14:00,
2016-02-13 07:19:00,58.5,57.1,30.22,NNW,340,0.0,0.0,95,0.00,,---,0.00,VWS V14.01,2016-02-13 12:19:00,
2016-02-13 07:23:00,58.9,57.5,30.22,NW,318,0.0,0.0,95,0.00,,---,0.00,VWS V14.01,2016-02-13 12:23:00,
2016-02-13 07:28:00,59.0,57.6,30.22,North,356,0.0,1.0,95,0.00,,---,0.00,VWS V14.01,2016-02-13 12:28:00,
2016-02-13 07:33:00,59.2,57.8,30.23,NNW,327,0.0,0.0,95,0.00,,---,0.00,VWS V14.01,2016-02-13 12:33:00,
2016-02-13 07:38:00,59.2,57.8,30.23,NW,323,0.0,2.0,95,0.00,,---,0.00,VWS V14.01,2016-02-13 12:38:00,
2016-02-13 07:43:00,59.1,57.7,30.23,NW,310,2.0,2.0,95,0.00,,---,0.00,VWS V14.01,2016-02-13 12:43:00,
2016-02-13 07:48:00,59.1,57.7,30.23,North,352,0.0,0.0,95,0.00,,---,0.00,VWS V14.01,2016-02-13 12:48:00,
2016-02-13 07:53:00,59.2,57.8,30.24,NNE,27,2.0,2.0,95,0.00,,---,0.00,VWS V14.01,2016-02-13 12:53:00,
2016-02-13 07:59:00,59.3,57.9,30.24,NW,325,0.0,0.0,95,0.00,,---,0.00,VWS V14.01,2016-02-13 12:59:00,
2016-02-13 08:04:00,59.4,57.7,30.24,North,352,0.0,0.0,94,0.00,,---,0.00,VWS V14.01,2016-02-13 13:04:00,
2016-02-13 08:10:00,59.7,58.0,30.24,North,349,0.0,0.0,94,0.00,,---,0.00,VWS V14.01,2016-02-13 13:10:00,
2016-02-13 08:15:00,60.0,58.3,30.24,North,8,0.0,2.0,94,0.00,,---,0.00,VWS V14.01,2016-02-13 13:15:00,
2016-02-13 08:20:00,60.4,58.4,30.25,North,7,0.0,0.0,93,0.00,,---,0.00,VWS V14.01,2016-02-13 13:20:00,
2016-02-13 08:25:00,60.8,58.5,30.25,North,6,0.0,0.0,92,0.00,,---,0.00,VWS V14.01,2016-02-13 13:25:00,
2016-02-13 08:35:00,61.6,58.0,30.25,NNE,19,0.0,1.0,88,0.00,,---,0.00,VWS V14.01,2016-02-13 13:35:00,
2016-02-13 08:40:00,61.7,56.8,30.26,SW,221,0.0,0.0,84,0.00,,---,0.00,VWS V14.01,2016-02-13 13:40:00,
2016-02-13 08:45:00,61.9,56.7,30.26,North,358,0.0,0.0,83,0.00,,---,0.00,VWS V14.01,2016-02-13 13:45:00,
2016-02-13 08:55:00,62.3,55.4,30.26,North,356,2.0,3.0,78,0.00,,---,0.00,VWS V14.01,2016-02-13 13:55:00,
2016-02-13 09:00:00,62.6,55.3,30.26,NNE,22,2.0,2.0,77,0.00,,---,0.00,VWS V14.01,2016-02-13 14:00:00,
2016-02-13 09:05:00,62.9,54.9,30.26,North,354,0.0,5.0,75,0.00,,---,0.00,VWS V14.01,2016-02-13 14:05:00,
2016-02-13 09:10:00,63.2,53.3,30.26,North,11,0.0,0.0,70,0.00,,---,0.00,VWS V14.01,2016-02-13 14:10:00,
2016-02-13 09:21:00,64.5,53.7,30.26,North,354,0.0,0.0,68,0.00,,---,0.00,VWS V14.01,2016-02-13 14:21:00,
2016-02-13 09:26:00,64.9,52.9,30.26,West,274,0.0,2.0,65,0.00,,---,0.00,VWS V14.01,2016-02-13 14:26:00,
2016-02-13 09:30:00,64.9,52.0,30.26,North,359,0.0,0.0,63,0.00,,---,0.00,VWS V14.01,2016-02-13 14:30:00,
2016-02-13 09:35:00,65.4,52.9,30.26,NNW,342,0.0,0.0,64,0.00,,---,0.00,VWS V14.01,2016-02-13 14:35:00,
2016-02-13 09:40:00,65.8,52.0,30.26,NNW,339,0.0,0.0,61,0.00,,---,0.00,VWS V14.01,2016-02-13 14:40:00,
2016-02-13 09:45:00,66.2,51.9,30.26,WSW,249,0.0,0.0,60,0.00,,---,0.00,VWS V14.01,2016-02-13 14:45:00,
2016-02-13 09:50:00,66.3,51.1,30.27,North,5,0.0,0.0,58,0.00,,---,0.00,VWS V14.01,2016-02-13 14:50:00,
2016-02-13 09:55:00,66.4,50.7,30.27,North,11,1.0,5.0,57,0.00,,---,0.00,VWS V14.01,2016-02-13 14:55:00,
2016-02-13 10:00:00,66.4,49.8,30.27,North,356,2.0,2.0,55,0.00,,---,0.00,VWS V14.01,2016-02-13 15:00:00,
2016-02-13 10:05:00,66.5,50.8,30.28,NNE,13,0.0,5.0,57,0.00,,---,0.00,VWS V14.01,2016-02-13 15:05:00,
2016-02-13 10:10:00,66.7,49.5,30.28,WSW,249,1.0,2.0,54,0.00,,---,0.00,VWS V14.01,2016-02-13 15:10:00,
2016-02-13 10:15:00,66.8,49.6,30.28,NE,49,0.0,3.0,54,0.00,,---,0.00,VWS V14.01,2016-02-13 15:15:00,
2016-02-13 10:20:00,67.2,49.5,30.28,North,359,3.0,3.0,53,0.00,,---,0.00,VWS V14.01,2016-02-13 15:20:00,
2016-02-13 10:30:00,67.6,49.9,30.28,NNE,23,0.0,0.0,53,0.00,,---,0.00,VWS V14.01,2016-02-13 15:30:00,
2016-02-13 10:35:00,67.8,50.1,30.28,North,359,0.0,5.0,53,0.00,,---,0.00,VWS V14.01,2016-02-13 15:35:00,
2016-02-13 10:40:00,67.9,49.1,30.28,NNE,23,0.0,0.0,51,0.00,,---,0.00,VWS V14.01,2016-02-13 15:40:00,
2016-02-13 10:45:00,68.2,49.9,30.28,WNW,294,2.0,2.0,52,0.00,,---,0.00,VWS V14.01,2016-02-13 15:45:00,
2016-02-13 10:50:00,68.3,49.5,30.27,East,100,0.0,0.0,51,0.00,,---,0.00,VWS V14.01,2016-02-13 15:50:00,
2016-02-13 10:56:00,68.7,49.3,30.27,NNE,30,0.0,0.0,50,0.00,,---,0.00,VWS V14.01,2016-02-13 15:56:00,
2016-02-13 11:06:00,69.4,50.0,30.27,North,9,0.0,0.0,50,0.00,,---,0.00,VWS V14.01,2016-02-13 16:06:00,
2016-02-13 11:11:00,69.4,51.0,30.27,North,6,0.0,0.0,52,0.00,,---,0.00,VWS V14.01,2016-02-13 16:11:00,
2016-02-13 11:16:00,69.4,52.0,30.27,North,9,2.0,3.0,54,0.00,,---,0.00,VWS V14.01,2016-02-13 16:16:00,
2016-02-13 11:21:00,69.4,52.0,30.27,SW,232,0.0,0.0,54,0.00,,---,0.00,VWS V14.01,2016-02-13 16:21:00,
2016-02-13 11:26:00,69.5,53.1,30.27,NW,323,0.0,2.0,56,0.00,,---,0.00,VWS V14.01,2016-02-13 16:26:00,
2016-02-13 11:31:00,69.7,53.3,30.27,NNW,332,0.0,4.0,56,0.00,,---,0.00,VWS V14.01,2016-02-13 16:31:00,
2016-02-13 11:36:00,69.9,54.9,30.27,West,267,0.0,2.0,59,0.00,,---,0.00,VWS V14.01,2016-02-13 16:36:00,
2016-02-13 11:41:00,70.0,53.6,30.27,North,359,0.0,0.0,56,0.00,,---,0.00,VWS V14.01,2016-02-13 16:41:00,
2016-02-13 11:47:00,70.0,53.1,30.26,SSE,148,0.0,0.0,55,0.00,,---,0.00,VWS V14.01,2016-02-13 16:47:00,
2016-02-13 11:52:00,69.7,52.8,30.27,NW,314,0.0,1.0,55,0.00,,---,0.00,VWS V14.01,2016-02-13 16:52:00,
2016-02-13 11:57:00,69.9,51.5,30.26,NNE,31,0.0,0.0,52,0.00,,---,0.00,VWS V14.01,2016-02-13 16:57:00,
2016-02-13 12:02:00,70.0,53.1,30.26,NNW,328,0.0,0.0,55,0.00,,---,0.00,VWS V14.01,2016-02-13 17:02:00,
2016-02-13 12:07:00,70.0,52.1,30.26,North,9,0.0,0.0,53,0.00,,---,0.00,VWS V14.01,2016-02-13 17:07:00,
2016-02-13 12:12:00,70.0,52.1,30.26,SW,219,0.0,0.0,53,0.00,,---,0.00,VWS V14.01,2016-02-13 17:12:00,
2016-02-13 12:17:00,69.9,52.5,30.26,West,265,0.0,0.0,54,0.00,,---,0.00,VWS V14.01,2016-02-13 17:17:00,
2016-02-13 12:23:00,70.6,52.1,30.25,SW,230,0.0,0.0,52,0.00,,---,0.00,VWS V14.01,2016-02-13 17:23:00,
2016-02-13 12:28:00,71.0,52.0,30.25,North,1,0.0,0.0,51,0.00,,---,0.00,VWS V14.01,2016-02-13 17:28:00,
2016-02-13 12:33:00,71.1,49.9,30.25,NNW,330,0.0,4.0,47,0.00,,---,0.00,VWS V14.01,2016-02-13 17:33:00,
2016-02-13 12:43:00,70.9,46.7,30.25,NNE,27,0.0,0.0,42,0.00,,---,0.00,VWS V14.01,2016-02-13 17:43:00,
2016-02-13 12:48:00,71.2,47.6,30.25,WSW,252,0.0,0.0,43,0.00,,---,0.00,VWS V14.01,2016-02-13 17:48:00,
2016-02-13 12:53:00,71.4,47.1,30.25,West,271,0.0,0.0,42,0.00,,---,0.00,VWS V14.01,2016-02-13 17:53:00,
2016-02-13 12:58:00,71.6,49.8,30.24,WSW,239,0.0,4.0,46,0.00,,---,0.00,VWS V14.01,2016-02-13 17:58:00,
2016-02-13 13:09:00,70.7,49.5,30.24,WSW,248,0.0,0.0,47,0.00,,---,0.00,VWS V14.01,2016-02-13 18:09:00,
2016-02-13 13:10:00,70.8,49.6,30.24,West,262,0.0,0.0,47,0.00,,---,0.00,VWS V14.01,2016-02-13 18:10:00,
2016-02-13 13:14:00,70.7,48.9,30.24,NW,320,0.0,0.0,46,0.00,,---,0.00,VWS V14.01,2016-02-13 18:14:00,
2016-02-13 13:19:00,70.5,48.2,30.24,North,4,0.0,0.0,45,0.00,,---,0.00,VWS V14.01,2016-02-13 18:19:00,
2016-02-13 13:34:00,70.2,43.4,30.24,NNE,15,0.0,6.0,38,0.00,,---,0.00,VWS V14.01,2016-02-13 18:34:00,
2016-02-13 13:39:00,69.5,43.5,30.24,SE,135,0.0,0.0,39,0.00,,---,0.00,VWS V14.01,2016-02-13 18:39:00,
2016-02-13 13:44:00,69.1,42.5,30.24,NNE,12,0.0,1.0,38,0.00,,---,0.00,VWS V14.01,2016-02-13 18:44:00,
2016-02-13 13:49:00,68.5,43.2,30.24,NNE,26,0.0,1.0,40,0.00,,---,0.00,VWS V14.01,2016-02-13 18:49:00,
2016-02-13 13:59:00,68.6,44.6,30.23,WNW,301,0.0,1.0,42,0.00,,---,0.00,VWS V14.01,2016-02-13 18:59:00,
2016-02-13 14:04:00,68.8,42.9,30.23,SSE,148,0.0,0.0,39,0.00,,---,0.00,VWS V14.01,2016-02-13 19:04:00,
2016-02-13 14:09:00,69.1,43.8,30.22,SE,141,0.0,1.0,40,0.00,,---,0.00,VWS V14.01,2016-02-13 19:09:00,
2016-02-13 14:14:00,69.3,45.9,30.22,NW,308,0.0,0.0,43,0.00,,---,0.00,VWS V14.01,2016-02-13 19:14:00,
2016-02-13 14:19:00,69.0,43.7,30.22,North,9,1.0,1.0,40,0.00,,---,0.00,VWS V14.01,2016-02-13 19:19:00,
2016-02-13 14:24:00,68.6,42.0,30.22,North,356,1.0,1.0,38,0.00,,---,0.00,VWS V14.01,2016-02-13 19:24:00,
2016-02-13 14:29:00,68.4,42.5,30.22,East,101,0.0,5.0,39,0.00,,---,0.00,VWS V14.01,2016-02-13 19:29:00,
2016-02-13 14:34:00,68.0,43.5,30.22,ESE,106,0.0,0.0,41,0.00,,---,0.00,VWS V14.01,2016-02-13 19:34:00,
2016-02-13 14:39:00,67.5,44.2,30.22,South,183,0.0,0.0,43,0.00,,---,0.00,VWS V14.01,2016-02-13 19:39:00,
2016-02-13 14:45:00,67.2,45.7,30.22,West,264,0.0,0.0,46,0.00,,---,0.00,VWS V14.01,2016-02-13 19:45:00,
2016-02-13 14:50:00,66.9,46.0,30.22,NNW,338,0.0,0.0,47,0.00,,---,0.00,VWS V14.01,2016-02-13 19:50:00,
2016-02-13 14:55:00,66.7,48.0,30.22,NNW,336,0.0,0.0,51,0.00,,---,0.00,VWS V14.01,2016-02-13 19:55:00,
2016-02-13 15:00:00,66.3,46.6,30.22,North,354,0.0,0.0,49,0.00,,---,0.00,VWS V14.01,2016-02-13 20:00:00,
2016-02-13 15:05:00,65.8,46.7,30.22,ESE,103,0.0,0.0,50,0.00,,---,0.00,VWS V14.01,2016-02-13 20:05:00,
2016-02-13 15:10:00,65.5,46.9,30.23,SSW,207,0.0,0.0,51,0.00,,---,0.00,VWS V14.01,2016-02-13 20:10:00,
2016-02-13 15:15:00,65.4,46.8,30.23,NNW,345,0.0,5.0,51,0.00,,---,0.00,VWS V14.01,2016-02-13 20:15:00,
2016-02-13 15:20:00,64.8,45.7,30.23,SSE,160,0.0,0.0,50,0.00,,---,0.00,VWS V14.01,2016-02-13 20:20:00,
2016-02-13 15:25:00,64.1,46.6,30.23,WNW,291,0.0,0.0,53,0.00,,---,0.00,VWS V14.01,2016-02-13 20:25:00,
2016-02-13 15:30:00,64.2,47.7,30.23,SW,231,0.0,0.0,55,0.00,,---,0.00,VWS V14.01,2016-02-13 20:30:00,
2016-02-13 15:35:00,63.8,46.4,30.22,East,97,0.0,0.0,53,0.00,,---,0.00,VWS V14.01,2016-02-13 20:35:00,
2016-02-13 15:40:00,63.3,46.9,30.23,NNE,29,0.0,0.0,55,0.00,,---,0.00,VWS V14.01,2016-02-13 20:40:00,
2016-02-13 15:45:00,62.7,46.3,30.23,NW,325,0.0,1.0,55,0.00,,---,0.00,VWS V14.01,2016-02-13 20:45:00,
2016-02-13 15:56:00,62.7,46.8,30.22,West,262,0.0,0.0,56,0.00,,---,0.00,VWS V14.01,2016-02-13 20:56:00,
2016-02-13 16:01:00,63.0,47.1,30.22,North,1,0.0,1.0,56,0.00,,---,0.00,VWS V14.01,2016-02-13 21:01:00,
2016-02-13 16:06:00,63.3,47.3,30.22,SE,131,0.0,3.0,56,0.00,,---,0.00,VWS V14.01,2016-02-13 21:06:00,
2016-02-13 16:11:00,63.2,46.8,30.22,NNW,342,0.0,2.0,55,0.00,,---,0.00,VWS V14.01,2016-02-13 21:11:00,
2016-02-13 16:16:00,62.9,47.0,30.22,NW,323,0.0,0.0,56,0.00,,---,0.00,VWS V14.01,2016-02-13 21:16:00,
2016-02-13 16:21:00,63.1,47.6,30.23,NW,304,0.0,0.0,57,0.00,,---,0.00,VWS V14.01,2016-02-13 21:21:00,
2016-02-13 16:26:00,63.1,46.7,30.22,North,352,0.0,1.0,55,0.00,,---,0.00,VWS V14.01,2016-02-13 21:26:00,
2016-02-13 16:36:00,62.4,47.0,30.22,SSW,207,0.0,1.0,57,0.00,,---,0.00,VWS V14.01,2016-02-13 21:36:00,
2016-02-13 16:41:00,62.3,46.0,30.22,NNE,20,0.0,0.0,55,0.00,,---,0.00,VWS V14.01,2016-02-13 21:41:00,
2016-02-13 16:46:00,62.2,46.3,30.22,SW,214,0.0,0.0,56,0.00,,---,0.00,VWS V14.01,2016-02-13 21:46:00,
2016-02-13 16:51:00,61.8,46.4,30.22,SSE,148,0.0,0.0,57,0.00,,---,0.00,VWS V14.01,2016-02-13 21:51:00,
2016-02-13 16:56:00,61.4,46.5,30.22,South,176,0.0,0.0,58,0.00,,---,0.00,VWS V14.01,2016-02-13 21:56:00,
2016-02-13 17:01:00,60.5,46.1,30.22,NNW,339,0.0,0.0,59,0.00,,---,0.00,VWS V14.01,2016-02-13 22:01:00,
2016-02-13 17:11:00,59.2,46.2,30.23,NNE,22,0.0,0.0,62,0.00,,---,0.00,VWS V14.01,2016-02-13 22:11:00,